Home > Weather > Sierra Vista > Past weeks

Flag for USA Past Weather in Sierra Vista, Arizona, USA — Yesterday and Last 2 Weeks

Now
79 °F

Passing clouds.


Feels Like: 81 °F
Forecast: 71 / 84 °F
Wind: 8 mph from West

Location: Fort Huachuca

Current Time: Jun 29, 2016 at 6:53:46 PM

Latest Report: Jun 29, 2016 at 5:58 PM


Visibility: 10 mi

Pressure: 29.87 "Hg (25.49 "Hg at 1390m altitude)

Humidity: 56%

Dew Point: 62 °F

Location of Sierra VistaLocation

Past Weather in Sierra Vista — Graph

°F

Sierra Vista Temperature Yesterday

Maximum temperature yesterday: 89 °F (at 10:58 AM)
Minimum temperature yesterday: 73 °F (at 4:02 AM)
Average temperature yesterday: 81 °F

High & Low Weather Summary for the Past Weeks

 TemperatureHumidityPressure
High104 °F (Jun 19, 3:58 PM)95% (Jun 29, 5:58 AM)30.22 "Hg (Jun 29, 5:58 AM)
Low63 °F (Jun 16, 5:58 AM)4% (Jun 15, 4:58 PM)29.77 "Hg (Jun 19, 6:58 PM)
Average81 °F29%29.92 "Hg
* Reported Jun 14 4:58 PM — Jun 29 4:58 PM, Sierra Vista, Weather by CustomWeather, © 2016

Note: Actual official high and low records may vary slightly from our data, if they occured in-between our weather recording intervals... More about our weather records

Advertising

Sierra Vista Weather History for the Previous 24 Hours

Scroll right to see more
 ConditionsComfort  
Time TempWeatherWind HumidityBarometerVisibility
4:58 PM
Wed, Jun 29
82 °FThundershowers. Scattered clouds.8 mph50%29.87 "Hg9 mi
3:58 PM82 °FPassing clouds.6 mph47%29.87 "Hg9 mi
2:58 PM83 °FThundershowers. Broken clouds.7 mph45%29.90 "Hg9 mi
1:58 PM82 °FPartly sunny.1 mph45%29.91 "Hg9 mi
12:58 PM81 °FScattered clouds.5 mph49%29.92 "Hg10 mi
11:58 AM81 °FThundershowers. Broken clouds.9 mph52%29.96 "Hg10 mi
10:58 AM80 °FPartly sunny.10 mph54%29.97 "Hg10 mi
9:58 AM77 °FSunny.2 mph61%29.99 "Hg10 mi
8:58 AM74 °FBroken clouds.7 mph72%30.00 "Hg10 mi
7:58 AM69 °FPartly sunny.2 mph91%30.01 "Hg10 mi
6:58 AM67 °FPartly sunny.5 mph92%29.98 "Hg10 mi
5:58 AM66 °FPassing clouds.7 mph95%29.96 "Hg10 mi
4:58 AM67 °FThundershowers. Passing clouds.6 mph92%29.96 "Hg8 mi
3:58 AM68 °FThunderstorms. Overcast.5 mph88%29.97 "Hg8 mi
2:58 AM66 °FRain. Fog.1 mph88%29.98 "Hg3 mi
2:04 AM75 °FOvercast.15 mph57%30.18 "Hg10 mi
1:58 AM75 °FOvercast.No wind57%29.92 "Hg10 mi
12:58 AM75 °FPassing clouds.5 mph57%29.93 "Hg10 mi
11:58 PM
Tue, Jun 28
77 °FPassing clouds.8 mph51%29.92 "Hg10 mi
10:58 PM79 °FClear.10 mph44%29.92 "Hg10 mi
9:58 PM78 °FPassing clouds.5 mph42%29.91 "Hg10 mi
8:58 PM79 °FPassing clouds.10 mph42%29.90 "Hg10 mi
7:58 PM80 °FPassing clouds.9 mph41%29.88 "Hg10 mi
6:58 PM83 °FOvercast.8 mph39%29.87 "Hg9 mi
Weather by CustomWeather, © 2016

See weather overviewHow to use our weather pages